Location: Munkebjergskolens Observatorium
(55.3864°N, 10.3987°E)
Time: 23:15:07
(UTC+01:00)

DELTA 1 DEB - Pass Details

Date: 08 December 2023
Orbit: 783 x 826 km, 98.9° (Epoch: 04 March)

Event Time Altitude Azimuth Distance (km) Brightness Sun altitude
Rises 19:07:19 0° 203° (SSW) 3,299 ? -26.6°
Reaches altitude 10° 19:10:05 10° 217° (SW) 2,381 ? -27.0°
Maximum altitude 19:14:16 24° 270° (W) 1,642 ? -27.5°
Drops below altitude 10° 19:18:31 10° 323° (NW) 2,419 ? -28.2°
Sets 19:21:22 0° 337° (NNW) 3,363 ? -28.6°
